Preview of NWS' New Version of Forecast
This preview is not operational and should not be used for support decisions.

Regional Weather Roundup (RWR)

Issued by National Weather Service (NWS)

                            
000
ASUS44 KMEG 251510
RWRTN 
TENNESSEE HOURLY STATE WEATHER ROUNDUP
NATIONAL WEATHER SERVICE MEMPHIS TN
1000 AM CDT SUN AUG 25 2019

TNZ002-004-019-021-049-052-054-088>092-251600-
WEST TENNESSEE
  
CITY           SKY/WX    TMP DP  RH WIND       PRES   REMARKS
MEMPHIS INTL   PTSUNNY   78  74  87 SE3       29.96S                  
NWS MEMPHIS      N/A     77 N/A N/A MISG        N/A                   
JACKSON        FAIR      79  74  84 VRB5      29.99S                  
DYERSBURG      FAIR      79  74  84 VRB3      29.98F                  
SOMERVILLE     SUNNY     81  72  74 CALM      29.97R                  
COVINGTON      MOSUNNY   77  75  94 SE5       29.97S                  
UNION CITY     MOSUNNY   75  72  88 SE5       29.97S                  
BOLIVAR        PTSUNNY   81  72  74 SE5       29.98R                  
PARIS          SUNNY     75  70  83 VRB3      29.99S                  
HUNTINGDON     MOSUNNY   75  70  83 SE6       29.99R                  
LEXINGTON      SUNNY     75  73  94 CALM      29.99R                  
SELMER         PTSUNNY   77  73  88 S8        29.99R                  
SAVANNAH       MOSUNNY   79  75  89 S8        29.99S                  
$$

TNZ008-025-027-028-033-062-065-066-251600-
NORTH MIDDLE TENNESSEE
  
CITY           SKY/WX    TMP DP  RH WIND       PRES   REMARKS
NASHVILLE      CLOUDY    79  70  74 S9        30.03S                  
DICKSON        MOSUNNY   77  72  83 S6        30.01S                  
PORTLAND       CLOUDY    77  72  83 S8        30.03S                  
CLARKSVILLE    LGT RAIN  73  66  78 E3        30.01F                  
LEBANON        CLOUDY    77  72  83 VRB7      30.02S                  
SMYRNA         CLOUDY    78  72  81 S8        30.04S                  
MURFREESBORO   CLOUDY    77  72  83 S9        30.02S                  
COOKEVILLE     PTSUNNY   77  70  78 S9        30.06S                  
LIVINGSTON     CLOUDY    77  70  78 S8        30.07S                  
GALLATIN       CLOUDY    77  70  78 VRB5      30.06S                  
CROSSVILLE     CLOUDY    69  66  90 S6        30.12S                  
ROCKWOOD       CLOUDY    66  64  94 SE6       30.12R                  
$$

TNZ061-075-076-078-094-096-097-251600-
SOUTH MIDDLE TENNESSEE
  
CITY           SKY/WX    TMP DP  RH WIND       PRES   REMARKS
LAWRENCEBURG   CLOUDY    75  72  88 S8        30.04R                  
LEWISBURG      CLOUDY    79  72  78 S8        30.03S                  
FAYETTEVILLE   CLOUDY    75  70  83 S10       30.05R                  
TULLAHOMA      CLOUDY    73  68  83 SE8       30.06R                  
WINCHESTER     CLOUDY    73  66  78 VRB6      30.07R                  
MCMINNVILLE    PTSUNNY   75  68  78 VRB6      30.07R                  
COLUMBIA       CLOUDY    77  77 100 S8        30.01S                  
SHELBYVILLE    CLOUDY    75  70  83 SE6       30.05R                  
$$

TNZ017-018-042-046-047-251600-
NORTHEAST TENNESSEE
  
CITY           SKY/WX    TMP DP  RH WIND       PRES   REMARKS
TRI CITIES     CLOUDY    69  58  67 VRB3      30.16S                  
ELIZABETHTON   CLOUDY    72  57  60 E8        30.16S                  
GREENEVILLE    CLOUDY    70  63  78 NW6       30.15R                  
$$

TNZ012-013-036-069-073-074-251600-
CENTRAL EAST TENNESSEE
  
CITY           SKY/WX    TMP DP  RH WIND       PRES   REMARKS
KNOXVILLE      CLOUDY    73  63  70 NE5       30.10R                  
OAK RIDGE      CLOUDY    73  63  70 VRB5      30.12R                  
DOWNTOWN KNOXV CLOUDY    73  64  73 VRB3      30.10F                  
GATLINBURG     CLOUDY    73  64  73 CALM      30.10S                  
MORRISTOWN     CLOUDY    70  63  78 E7        30.12S                  
JACKSBORO      CLOUDY    68  64  88 CALM      30.15S                  
$$

TNZ083-085-099-251600-
SOUTHEAST TENNESSEE
  
CITY           SKY/WX    TMP DP  RH WIND       PRES   REMARKS
CHATTANOOGA    DRIZZLE   71  67  87 SW6       30.11R                  
DAYTON         CLOUDY    72  68  88 S5        30.09S                  
$$

SKY/WX REPORTED AS FAIR MEANS FEW OR NO CLOUDS BELOW
12 THOUSAND FEET.